Time,TemperatureF,DewpointF,PressureIn,WindDirection,WindDirectionDegrees,WindSpeedMPH,WindSpeedGustMPH,Humidity,HourlyPrecipIn,Conditions,Clouds,dailyrainin,SoftwareType,DateUTC
2013-10-26 00:02:00,30.0,21.0,-100.00,West,270,0.0,1.0,68,0.00,,,0.00,,2013-10-26 08:02:00,
2013-10-26 00:11:00,30.0,21.0,-100.00,West,270,0.0,1.0,68,0.00,,,0.00,,2013-10-26 08:11:00,
2013-10-26 00:22:00,30.0,20.0,-100.00,SSW,205,2.0,3.0,67,0.00,,,0.00,,2013-10-26 08:22:00,
2013-10-26 00:32:00,30.0,20.0,-100.00,SSW,205,2.0,3.0,67,0.00,,,0.00,,2013-10-26 08:32:00,
2013-10-26 00:42:00,30.0,20.0,-100.00,SSW,205,2.0,3.0,67,0.00,,,0.00,,2013-10-26 08:42:00,
2013-10-26 00:52:00,28.0,20.0,-100.00,South,175,2.0,3.0,71,0.00,,,0.00,,2013-10-26 08:52:00,
2013-10-26 01:02:00,28.0,20.0,-100.00,South,175,2.0,3.0,71,0.00,,,0.00,,2013-10-26 09:02:00,
2013-10-26 01:11:00,28.0,20.0,-100.00,South,175,2.0,3.0,71,0.00,,,0.00,,2013-10-26 09:11:00,
2013-10-26 01:22:00,28.0,20.0,-100.00,SE,125,4.0,6.0,69,0.00,,,0.00,,2013-10-26 09:22:00,
2013-10-26 01:33:00,28.0,20.0,-100.00,SE,125,4.0,6.0,69,0.00,,,0.00,,2013-10-26 09:33:00,
2013-10-26 01:43:00,28.0,20.0,-100.00,SE,125,4.0,6.0,69,0.00,,,0.00,,2013-10-26 09:43:00,
2013-10-26 01:53:00,27.0,20.0,-100.00,WNW,300,1.0,5.0,74,0.00,,,0.00,,2013-10-26 09:53:00,
2013-10-26 02:03:00,27.0,20.0,-100.00,WNW,300,1.0,5.0,74,0.00,,,0.00,,2013-10-26 10:03:00,
2013-10-26 02:13:00,27.0,20.0,-100.00,WNW,300,1.0,5.0,74,0.00,,,0.00,,2013-10-26 10:13:00,
2013-10-26 02:22:00,28.0,20.0,-100.00,SW,215,0.0,4.0,72,0.00,,,0.00,,2013-10-26 10:22:00,
2013-10-26 02:33:00,28.0,20.0,-100.00,SW,215,0.0,4.0,72,0.00,,,0.00,,2013-10-26 10:33:00,
2013-10-26 02:42:00,28.0,20.0,-100.00,SW,215,0.0,4.0,72,0.00,,,0.00,,2013-10-26 10:42:00,
2013-10-26 02:53:00,28.0,20.0,-100.00,SW,225,2.0,4.0,71,0.00,,,0.00,,2013-10-26 10:53:00,
2013-10-26 03:03:00,28.0,20.0,-100.00,SW,225,2.0,4.0,71,0.00,,,0.00,,2013-10-26 11:03:00,
2013-10-26 03:11:00,28.0,20.0,-100.00,SW,225,2.0,4.0,71,0.00,,,0.00,,2013-10-26 11:11:00,
2013-10-26 03:21:00,28.0,20.0,-100.00,NNW,335,0.0,1.0,72,0.00,,,0.00,,2013-10-26 11:21:00,
2013-10-26 03:33:00,28.0,20.0,-100.00,NNW,335,0.0,1.0,72,0.00,,,0.00,,2013-10-26 11:33:00,
2013-10-26 03:42:00,28.0,20.0,-100.00,NNW,335,0.0,1.0,72,0.00,,,0.00,,2013-10-26 11:42:00,
2013-10-26 03:52:00,27.0,20.0,-100.00,NW,310,1.0,2.0,72,0.00,,,0.00,,2013-10-26 11:52:00,
2013-10-26 04:01:00,27.0,20.0,-100.00,NW,310,1.0,2.0,72,0.00,,,0.00,,2013-10-26 12:01:00,
2013-10-26 04:12:00,27.0,20.0,-100.00,NW,310,1.0,2.0,72,0.00,,,0.00,,2013-10-26 12:12:00,
2013-10-26 04:21:00,27.0,20.0,-100.00,NNW,335,2.0,3.0,74,0.00,,,0.00,,2013-10-26 12:21:00,
2013-10-26 04:32:00,27.0,20.0,-100.00,NNW,335,2.0,3.0,74,0.00,,,0.00,,2013-10-26 12:32:00,
2013-10-26 04:42:00,27.0,20.0,-100.00,NNW,335,2.0,3.0,74,0.00,,,0.00,,2013-10-26 12:42:00,
2013-10-26 04:52:00,27.0,20.0,-100.00,SSE,160,2.0,2.0,74,0.00,,,0.00,,2013-10-26 12:52:00,
2013-10-26 05:01:00,27.0,20.0,-100.00,SSE,160,2.0,2.0,74,0.00,,,0.00,,2013-10-26 13:01:00,
2013-10-26 05:11:00,27.0,20.0,-100.00,SSE,160,2.0,2.0,74,0.00,,,0.00,,2013-10-26 13:11:00,
2013-10-26 05:21:00,25.0,19.0,-100.00,ESE,110,4.0,6.0,78,0.00,,,0.00,,2013-10-26 13:21:00,
2013-10-26 05:32:00,25.0,19.0,-100.00,ESE,110,4.0,6.0,78,0.00,,,0.00,,2013-10-26 13:32:00,
2013-10-26 05:42:00,25.0,19.0,-100.00,ESE,110,4.0,6.0,78,0.00,,,0.00,,2013-10-26 13:42:00,
2013-10-26 05:52:00,24.0,19.0,-100.00,SSE,155,1.0,4.0,82,0.00,,,0.00,,2013-10-26 13:52:00,
2013-10-26 06:01:00,24.0,19.0,-100.00,SSE,155,1.0,4.0,82,0.00,,,0.00,,2013-10-26 14:01:00,
2013-10-26 06:11:00,24.0,19.0,-100.00,SSE,155,1.0,4.0,82,0.00,,,0.00,,2013-10-26 14:11:00,
2013-10-26 06:21:00,24.0,20.0,-100.00,SE,125,2.0,4.0,84,0.00,,,0.00,,2013-10-26 14:21:00,
2013-10-26 06:31:00,24.0,20.0,-100.00,SE,125,2.0,4.0,84,0.00,,,0.00,,2013-10-26 14:31:00,
2013-10-26 06:42:00,24.0,20.0,-100.00,SE,125,2.0,4.0,84,0.00,,,0.00,,2013-10-26 14:42:00,
2013-10-26 06:52:00,23.0,19.0,-100.00,ESE,110,4.0,6.0,84,0.00,,,0.00,,2013-10-26 14:52:00,
2013-10-26 07:02:00,23.0,19.0,-100.00,ESE,110,4.0,6.0,84,0.00,,,0.00,,2013-10-26 15:02:00,
2013-10-26 07:12:00,23.0,19.0,-100.00,ESE,110,4.0,6.0,84,0.00,,,0.00,,2013-10-26 15:12:00,
2013-10-26 07:23:00,24.0,21.0,-100.00,SE,125,4.0,6.0,85,0.00,,,0.00,,2013-10-26 15:23:00,
2013-10-26 07:34:00,24.0,21.0,-100.00,SE,125,4.0,6.0,85,0.00,,,0.00,,2013-10-26 15:34:00,
2013-10-26 07:44:00,24.0,21.0,-100.00,SE,125,4.0,6.0,85,0.00,,,0.00,,2013-10-26 15:44:00,
2013-10-26 07:55:00,23.0,20.0,-100.00,SE,130,6.0,7.0,85,0.00,,,0.00,,2013-10-26 15:55:00,
2013-10-26 08:05:00,23.0,20.0,-100.00,SE,130,6.0,7.0,85,0.00,,,0.00,,2013-10-26 16:05:00,
2013-10-26 08:14:00,23.0,20.0,-100.00,SE,130,6.0,7.0,85,0.00,,,0.00,,2013-10-26 16:14:00,
2013-10-26 08:24:00,22.0,19.0,-100.00,ESE,120,6.0,9.0,87,0.00,,,0.00,,2013-10-26 16:24:00,
2013-10-26 08:34:00,22.0,19.0,-100.00,ESE,120,6.0,9.0,87,0.00,,,0.00,,2013-10-26 16:34:00,
2013-10-26 08:44:00,22.0,19.0,-100.00,ESE,120,6.0,9.0,87,0.00,,,0.00,,2013-10-26 16:44:00,
2013-10-26 08:53:00,22.0,20.0,-100.00,SE,130,6.0,10.0,89,0.00,,,0.00,,2013-10-26 16:53:00,
2013-10-26 09:03:00,22.0,20.0,-100.00,SE,130,6.0,10.0,89,0.00,,,0.00,,2013-10-26 17:03:00,
2013-10-26 09:12:00,22.0,20.0,-100.00,SE,130,6.0,10.0,89,0.00,,,0.00,,2013-10-26 17:12:00,
2013-10-26 09:23:00,22.0,19.0,-100.00,SE,125,6.0,9.0,89,0.00,,,0.00,,2013-10-26 17:23:00,
2013-10-26 09:34:00,22.0,19.0,-100.00,SE,125,6.0,9.0,89,0.00,,,0.00,,2013-10-26 17:34:00,
2013-10-26 09:43:00,22.0,19.0,-100.00,SE,125,6.0,9.0,89,0.00,,,0.00,,2013-10-26 17:43:00,
2013-10-26 09:52:00,23.0,21.0,-100.00,ESE,120,6.0,11.0,89,0.00,,,0.00,,2013-10-26 17:52:00,
2013-10-26 10:02:00,23.0,21.0,-100.00,ESE,120,6.0,11.0,89,0.00,,,0.00,,2013-10-26 18:02:00,
2013-10-26 10:12:00,23.0,21.0,-100.00,ESE,120,6.0,11.0,89,0.00,,,0.00,,2013-10-26 18:12:00,
2013-10-26 10:21:00,24.0,21.0,-100.00,SE,125,4.0,9.0,88,0.00,,,0.00,,2013-10-26 18:21:00,
2013-10-26 10:32:00,24.0,21.0,-100.00,SE,125,4.0,9.0,88,0.00,,,0.00,,2013-10-26 18:32:00,
2013-10-26 10:42:00,24.0,21.0,-100.00,SE,125,4.0,9.0,88,0.00,,,0.00,,2013-10-26 18:42:00,
2013-10-26 10:52:00,24.0,21.0,-100.00,SE,125,4.0,9.0,88,0.00,,,0.00,,2013-10-26 18:52:00,
2013-10-26 11:01:00,24.0,21.0,-100.00,SE,125,4.0,9.0,88,0.00,,,0.00,,2013-10-26 19:01:00,
2013-10-26 11:12:00,24.0,21.0,-100.00,SE,125,4.0,9.0,88,0.00,,,0.00,,2013-10-26 19:12:00,
2013-10-26 11:22:00,24.0,21.0,-100.00,SE,130,3.0,7.0,87,0.00,,,0.00,,2013-10-26 19:22:00,
2013-10-26 11:32:00,24.0,21.0,-100.00,SE,130,3.0,7.0,87,0.00,,,0.00,,2013-10-26 19:32:00,
2013-10-26 11:42:00,24.0,21.0,-100.00,SE,130,3.0,7.0,87,0.00,,,0.00,,2013-10-26 19:42:00,
2013-10-26 11:52:00,25.0,21.0,-100.00,ESE,115,6.0,11.0,83,0.00,,,0.00,,2013-10-26 19:52:00,
2013-10-26 12:02:00,25.0,21.0,-100.00,ESE,115,6.0,11.0,83,0.00,,,0.00,,2013-10-26 20:02:00,
2013-10-26 12:12:00,25.0,21.0,-100.00,ESE,115,6.0,11.0,83,0.00,,,0.00,,2013-10-26 20:12:00,
2013-10-26 12:22:00,26.0,21.0,-100.00,SE,125,6.0,11.0,80,0.00,,,0.00,,2013-10-26 20:22:00,
2013-10-26 12:33:00,26.0,21.0,-100.00,SE,125,6.0,11.0,80,0.00,,,0.00,,2013-10-26 20:33:00,
2013-10-26 12:43:00,26.0,21.0,-100.00,SE,125,6.0,11.0,80,0.00,,,0.00,,2013-10-26 20:43:00,
2013-10-26 12:52:00,26.0,21.0,-100.00,SE,140,5.0,11.0,79,0.00,,,0.00,,2013-10-26 20:52:00,
2013-10-26 13:02:00,26.0,21.0,-100.00,SE,140,5.0,11.0,79,0.00,,,0.00,,2013-10-26 21:02:00,
2013-10-26 13:11:00,26.0,21.0,-100.00,SE,140,5.0,11.0,79,0.00,,,0.00,,2013-10-26 21:11:00,
2013-10-26 13:21:00,27.0,21.0,-100.00,SE,130,4.0,11.0,77,0.00,,,0.00,,2013-10-26 21:21:00,
2013-10-26 13:34:00,27.0,21.0,-100.00,SE,130,4.0,11.0,77,0.00,,,0.00,,2013-10-26 21:34:00,
2013-10-26 13:43:00,27.0,21.0,-100.00,SE,130,4.0,11.0,77,0.00,,,0.00,,2013-10-26 21:43:00,
2013-10-26 13:54:00,28.0,21.0,-100.00,ESE,120,4.0,10.0,75,0.00,,,0.00,,2013-10-26 21:54:00,
2013-10-26 14:03:00,28.0,21.0,-100.00,ESE,120,4.0,10.0,75,0.00,,,0.00,,2013-10-26 22:03:00,
2013-10-26 14:13:00,28.0,21.0,-100.00,ESE,120,4.0,10.0,75,0.00,,,0.00,,2013-10-26 22:13:00,
2013-10-26 14:23:00,29.0,21.0,-100.00,East,80,2.0,7.0,73,0.00,,,0.00,,2013-10-26 22:23:00,
2013-10-26 14:33:00,29.0,21.0,-100.00,East,80,2.0,7.0,73,0.00,,,0.00,,2013-10-26 22:33:00,
2013-10-26 14:43:00,29.0,21.0,-100.00,East,80,2.0,7.0,73,0.00,,,0.00,,2013-10-26 22:43:00,
2013-10-26 14:53:00,30.0,21.0,-100.00,ESE,120,2.0,7.0,68,0.00,,,0.00,,2013-10-26 22:53:00,
2013-10-26 15:03:00,30.0,21.0,-100.00,ESE,120,2.0,7.0,68,0.00,,,0.00,,2013-10-26 23:03:00,
2013-10-26 15:12:00,30.0,21.0,-100.00,ESE,120,2.0,7.0,68,0.00,,,0.00,,2013-10-26 23:12:00,
2013-10-26 15:22:00,31.0,21.0,-100.00,East,85,2.0,9.0,65,0.00,,,0.00,,2013-10-26 23:22:00,
2013-10-26 15:34:00,31.0,21.0,-100.00,East,85,2.0,9.0,65,0.00,,,0.00,,2013-10-26 23:34:00,
2013-10-26 15:42:00,31.0,21.0,-100.00,East,85,2.0,9.0,65,0.00,,,0.00,,2013-10-26 23:42:00,
2013-10-26 15:52:00,31.0,20.0,-100.00,ESE,115,3.0,9.0,64,0.00,,,0.00,,2013-10-26 23:52:00,
2013-10-26 16:01:00,31.0,20.0,-100.00,ESE,115,3.0,9.0,64,0.00,,,0.00,,2013-10-27 00:01:00,
2013-10-26 16:11:00,31.0,20.0,-100.00,ESE,115,3.0,9.0,64,0.00,,,0.00,,2013-10-27 00:11:00,
2013-10-26 16:21:00,30.0,20.0,-100.00,ENE,75,4.0,10.0,66,0.00,,,0.00,,2013-10-27 00:21:00,
2013-10-26 16:32:00,30.0,20.0,-100.00,ENE,75,4.0,10.0,66,0.00,,,0.00,,2013-10-27 00:32:00,
2013-10-26 16:42:00,30.0,20.0,-100.00,ENE,75,4.0,10.0,66,0.00,,,0.00,,2013-10-27 00:42:00,
2013-10-26 16:52:00,29.0,20.0,-100.00,SE,130,6.0,12.0,68,0.00,,,0.00,,2013-10-27 00:52:00,
2013-10-26 17:01:00,29.0,20.0,-100.00,SE,130,6.0,12.0,68,0.00,,,0.00,,2013-10-27 01:01:00,
2013-10-26 17:11:00,29.0,20.0,-100.00,SE,130,6.0,12.0,68,0.00,,,0.00,,2013-10-27 01:11:00,
2013-10-26 17:22:00,29.0,20.0,-100.00,SE,130,4.0,11.0,69,0.00,,,0.00,,2013-10-27 01:22:00,
2013-10-26 17:32:00,29.0,20.0,-100.00,SE,130,4.0,11.0,69,0.00,,,0.00,,2013-10-27 01:32:00,
2013-10-26 17:42:00,29.0,20.0,-100.00,SE,130,4.0,11.0,69,0.00,,,0.00,,2013-10-27 01:42:00,
2013-10-26 17:52:00,29.0,20.0,-100.00,ESE,120,4.0,11.0,69,0.00,,,0.00,,2013-10-27 01:52:00,
2013-10-26 18:02:00,29.0,20.0,-100.00,ESE,120,4.0,11.0,69,0.00,,,0.00,,2013-10-27 02:02:00,
2013-10-26 18:12:00,29.0,20.0,-100.00,ESE,120,4.0,11.0,69,0.00,,,0.00,,2013-10-27 02:12:00,
2013-10-26 18:21:00,30.0,21.0,-100.00,East,90,6.0,14.0,69,0.00,,,0.00,,2013-10-27 02:21:00,
2013-10-26 18:32:00,30.0,21.0,-100.00,East,90,6.0,14.0,69,0.00,,,0.00,,2013-10-27 02:32:00,
2013-10-26 18:42:00,30.0,21.0,-100.00,East,90,6.0,14.0,69,0.00,,,0.00,,2013-10-27 02:42:00,
2013-10-26 18:52:00,30.0,21.0,-100.00,East,80,6.0,15.0,68,0.00,,,0.00,,2013-10-27 02:52:00,
2013-10-26 19:02:00,30.0,21.0,-100.00,East,80,6.0,15.0,68,0.00,,,0.00,,2013-10-27 03:02:00,
2013-10-26 19:11:00,30.0,21.0,-100.00,East,80,6.0,15.0,68,0.00,,,0.00,,2013-10-27 03:11:00,
2013-10-26 19:21:00,30.0,21.0,-100.00,ESE,115,4.0,14.0,68,0.00,,,0.00,,2013-10-27 03:21:00,
2013-10-26 19:34:00,30.0,21.0,-100.00,ESE,115,4.0,14.0,68,0.00,,,0.00,,2013-10-27 03:34:00,
2013-10-26 19:44:00,30.0,21.0,-100.00,ESE,115,4.0,14.0,68,0.00,,,0.00,,2013-10-27 03:44:00,
2013-10-26 19:54:00,31.0,21.0,-100.00,ENE,70,6.0,14.0,67,0.00,,,0.00,,2013-10-27 03:54:00,
2013-10-26 20:02:00,-999.0,-99.9,-100.00,ENE,70,6.0,14.0,-999,-99.99,,,-99.99,,2013-10-27 04:02:00,
2013-10-26 20:13:00,31.0,21.0,-100.00,ENE,70,6.0,14.0,67,0.00,,,0.00,,2013-10-27 04:13:00,
2013-10-26 20:24:00,31.0,22.0,-100.00,East,80,6.0,15.0,67,0.00,,,0.00,,2013-10-27 04:24:00,
2013-10-26 20:34:00,31.0,22.0,-100.00,East,80,6.0,15.0,67,0.00,,,0.00,,2013-10-27 04:34:00,
2013-10-26 20:44:00,31.0,22.0,-100.00,East,80,6.0,15.0,67,0.00,,,0.00,,2013-10-27 04:44:00,
2013-10-26 20:53:00,31.0,22.0,-100.00,East,100,4.0,15.0,66,0.00,,,0.00,,2013-10-27 04:53:00,
2013-10-26 21:04:00,31.0,22.0,-100.00,East,100,4.0,15.0,66,0.00,,,0.00,,2013-10-27 05:04:00,
2013-10-26 21:12:00,31.0,22.0,-100.00,East,100,4.0,15.0,66,0.00,,,0.00,,2013-10-27 05:12:00,
2013-10-26 21:23:00,32.0,22.0,-100.00,SE,125,6.0,21.0,66,0.00,,,0.00,,2013-10-27 05:23:00,
2013-10-26 21:34:00,32.0,22.0,-100.00,SE,125,6.0,21.0,66,0.00,,,0.00,,2013-10-27 05:34:00,
2013-10-26 21:43:00,32.0,22.0,-100.00,SE,125,6.0,21.0,66,0.00,,,0.00,,2013-10-27 05:43:00,
2013-10-26 21:52:00,32.0,22.0,-100.00,East,95,7.0,17.0,65,0.00,,,0.00,,2013-10-27 05:52:00,
2013-10-26 22:01:00,32.0,22.0,-100.00,East,95,7.0,17.0,65,0.00,,,0.00,,2013-10-27 06:01:00,
2013-10-26 22:13:00,32.0,22.0,-100.00,East,95,7.0,17.0,65,0.00,,,0.00,,2013-10-27 06:13:00,
2013-10-26 22:21:00,32.0,22.0,-100.00,East,85,9.0,18.0,65,0.00,,,0.00,,2013-10-27 06:21:00,
2013-10-26 22:32:00,32.0,22.0,-100.00,East,85,9.0,18.0,65,0.00,,,0.00,,2013-10-27 06:32:00,
2013-10-26 22:42:00,32.0,22.0,-100.00,East,85,9.0,18.0,65,0.00,,,0.00,,2013-10-27 06:42:00,
2013-10-26 22:53:00,32.0,22.0,-100.00,ESE,115,6.0,21.0,65,0.00,,,0.00,,2013-10-27 06:53:00,
2013-10-26 23:02:00,32.0,22.0,-100.00,ESE,115,6.0,21.0,65,0.00,,,0.00,,2013-10-27 07:02:00,
2013-10-26 23:11:00,32.0,22.0,-100.00,ESE,115,6.0,21.0,65,0.00,,,0.00,,2013-10-27 07:11:00,
2013-10-26 23:21:00,32.0,22.0,-100.00,SSE,150,10.0,17.0,64,0.00,,,0.00,,2013-10-27 07:21:00,
2013-10-26 23:32:00,32.0,22.0,-100.00,SSE,150,10.0,17.0,64,0.00,,,0.00,,2013-10-27 07:32:00,
2013-10-26 23:42:00,32.0,22.0,-100.00,SSE,150,10.0,17.0,64,0.00,,,0.00,,2013-10-27 07:42:00,
2013-10-26 23:52:00,33.0,22.0,-100.00,SE,140,11.0,22.0,64,0.00,,,0.00,,2013-10-27 07:52:00,